Weather History for Augusta, ME

Change the Weather History Date:

Saturday, March 2, 2013

  Actual Average Record
Temperature  
Mean Temperature 34 °F -  
Max Temperature 37 °F 32 °F 51 °F (1997)
Min Temperature 30 °F 19 °F -7 °F (2001)
Degree Days  
Heating Degree Days 32    
Moisture  
Dew Point 29 °F    
Average Humidity 89    
Maximum Humidity 96    
Minimum Humidity 67    
Precipitation  
Precipitation 0.13 in - - ()
Sea Level Pressure  
Sea Level Pressure 29.62 in    
Wind  
Wind Speed 8 mph (NW)    
Max Wind Speed 16 mph    
Max Gust Speed 22 mph    
Visibility 5 miles    
Events Snow    
Averages and records for this station are not official NWS values.
T = Trace of Precipitation, MM = Missing Value Source: NWS Daily Summary

Daily Weather History Graph

Daily Weather History Graph

Search for Another Location

Airport:

Trip Planner

Search our weather history database for the weather conditions in past years. The results will help you decide how hot, cold, wet, or windy it might be!

Date:

Astronomy

Mar. 02, 2013 Rise Set
Actual Time 6:14 AM EST 5:28 PM EST
Civil Twilight 5:45 AM EST 5:58 PM EST
Nautical Twilight 5:11 AM EST 6:31 PM EST
Astronomical Twilight 4:38 AM EST 7:05 PM EST
Moon 11:19 PM EST (3/2) 8:26 AM EST (3/2)
Length of Visible Light 12h 12m
Length of Day
11h 14m
Waning Gibbous, 74% of the Moon is Illuminated
Mar 2
Waning Gibbous
Mar 4
Last Quarter
Mar 11
New
Mar 19
First Quarter
Mar 27
Full

Hourly Weather History & Observations

Time (EST) Temp. Windchill Dew Point Humidity Pressure Visibility Wind Dir Wind Speed Gust Speed Precip Events Conditions
12:53 AM 30.9 °F 22.8 °F 28.9 °F 92% 29.63 in 2.5 mi NNW 9.2 mph - 0.00 in Snow Light Snow
1:00 AM 30.2 °F 21.9 °F 28.4 °F 93% 29.62 in 2.0 mi NNW 9.2 mph - 0.00 in Snow Light Snow
1:17 AM 30.2 °F 21.9 °F 28.4 °F 93% 29.62 in 1.8 mi NW 9.2 mph - N/A Snow Light Snow
1:35 AM 30.2 °F 22.6 °F 28.4 °F 93% 29.61 in 2.0 mi NW 8.1 mph - 0.00 in Snow Light Snow
1:46 AM 30.2 °F 23.4 °F 28.4 °F 93% 29.61 in 5.0 mi NW 6.9 mph - 0.00 in Snow Light Snow
1:53 AM 30.9 °F 24.3 °F 28.9 °F 92% 29.62 in 7.0 mi NW 6.9 mph - 0.00 in Snow Light Snow
2:53 AM 30.9 °F 25.2 °F 27.0 °F 85% 29.62 in 10.0 mi NW 5.8 mph - 0.00 in   Overcast
3:35 AM 30.2 °F 23.4 °F 26.6 °F 86% 29.60 in 10.0 mi NW 6.9 mph - N/A   Overcast
3:49 AM 30.2 °F 24.3 °F 26.6 °F 86% 29.60 in 10.0 mi NW 5.8 mph - N/A   Overcast
3:53 AM 30.0 °F 24.1 °F 27.0 °F 88% 29.62 in 10.0 mi NW 5.8 mph - N/A   Overcast
4:53 AM 30.0 °F 23.2 °F 27.0 °F 88% 29.62 in 10.0 mi NNW 6.9 mph - N/A   Overcast
5:53 AM 30.9 °F 23.5 °F 27.0 °F 85% 29.62 in 10.0 mi North 8.1 mph - N/A   Overcast
6:53 AM 30.2 °F 21.9 °F 26.6 °F 86% 29.62 in 10.0 mi North 9.2 mph - N/A   Overcast
7:53 AM 30.9 °F 22.8 °F 26.1 °F 82% 29.64 in 10.0 mi NNW 9.2 mph - N/A   Overcast
8:53 AM 33.1 °F 24.9 °F 26.1 °F 75% 29.64 in 10.0 mi North 10.4 mph - N/A   Overcast
9:53 AM 34.0 °F 25.5 °F 26.1 °F 73% 29.63 in 10.0 mi North 11.5 mph - N/A   Overcast
10:53 AM 35.1 °F 25.2 °F 27.0 °F 72% 29.62 in 10.0 mi NNW 16.1 mph 20.7 mph N/A   Overcast
11:53 AM 37.0 °F 29.3 °F 27.0 °F 67% 29.61 in 10.0 mi North 11.5 mph 20.7 mph N/A   Overcast
12:11 PM 35.6 °F 26.2 °F 26.6 °F 70% 29.60 in 10.0 mi North 15.0 mph - N/A   Overcast
12:33 PM 35.6 °F 26.2 °F 26.6 °F 70% 29.60 in 10.0 mi North 15.0 mph 21.9 mph N/A   Overcast
12:53 PM 35.1 °F 25.2 °F 27.0 °F 72% 29.61 in 4.0 mi North 16.1 mph - 0.00 in Snow Light Snow
1:53 PM 35.1 °F 27.4 °F 28.9 °F 78% 29.61 in 7.0 mi NNW 10.4 mph - 0.00 in Snow Light Snow
2:25 PM 33.8 °F 27.0 °F 30.2 °F 87% 29.60 in 3.0 mi NNW 8.1 mph - 0.00 in Snow Light Snow
2:29 PM 33.8 °F 28.6 °F 30.2 °F 87% 29.60 in 2.5 mi NW 5.8 mph - 0.00 in Snow Light Snow
2:39 PM 33.8 °F 28.6 °F 30.2 °F 87% 29.60 in 3.0 mi NW 5.8 mph - 0.00 in Snow Light Snow
2:50 PM 33.8 °F 27.7 °F 30.2 °F 87% 29.60 in 3.0 mi NW 6.9 mph - 0.00 in Snow Light Snow
2:53 PM 34.0 °F 28.8 °F 30.0 °F 85% 29.61 in 4.0 mi NW 5.8 mph - 0.00 in Snow Light Snow
3:43 PM 33.8 °F 28.6 °F 30.2 °F 87% 29.60 in 8.0 mi WNW 5.8 mph - 0.00 in   Overcast
3:53 PM 34.0 °F 31.0 °F 30.9 °F 89% 29.62 in 9.0 mi Variable 3.5 mph - 0.00 in   Overcast
4:35 PM 33.8 °F 29.6 °F 32.0 °F 93% 29.61 in 8.0 mi NW 4.6 mph - 0.01 in   Overcast
4:53 PM 33.1 °F 28.7 °F 32.0 °F 96% 29.62 in 10.0 mi NW 4.6 mph - 0.01 in   Overcast
5:29 PM 33.8 °F 29.6 °F 32.0 °F 93% 29.62 in 3.0 mi NW 4.6 mph - 0.00 in Snow Light Snow
5:34 PM 33.8 °F 28.6 °F 32.0 °F 93% 29.62 in 4.0 mi NW 5.8 mph - 0.00 in Snow Light Snow
5:42 PM 33.8 °F 27.7 °F 30.2 °F 87% 29.62 in 1.8 mi NW 6.9 mph - 0.01 in Snow Light Snow
5:49 PM 32.0 °F 27.5 °F 30.2 °F 93% 29.63 in 1.2 mi NW 4.6 mph - 0.02 in Snow Light Snow
5:53 PM 32.0 °F 27.5 °F 30.9 °F 96% 29.64 in 1.2 mi NW 4.6 mph - 0.02 in Snow Light Snow
6:34 PM 32.0 °F 28.7 °F 30.2 °F 93% 29.63 in 1.5 mi WNW 3.5 mph - 0.02 in Snow Light Snow
6:41 PM 32.0 °F 26.4 °F 30.2 °F 93% 29.63 in 1.5 mi WNW 5.8 mph - 0.02 in Snow Light Snow
6:53 PM 32.0 °F 26.4 °F 30.9 °F 96% 29.65 in 1.8 mi NW 5.8 mph - 0.03 in Snow Light Snow
7:03 PM 32.0 °F 27.5 °F 30.2 °F 93% 29.63 in 2.5 mi NW 4.6 mph - 0.00 in Snow Light Snow
7:24 PM 32.0 °F 26.4 °F 30.2 °F 93% 29.63 in 3.0 mi NW 5.8 mph - 0.00 in Snow Light Snow
7:33 PM 32.0 °F 26.4 °F 30.2 °F 93% 29.63 in 1.8 mi WNW 5.8 mph - 0.00 in Snow Light Snow
7:42 PM 32.0 °F 27.5 °F 30.2 °F 93% 29.62 in 1.8 mi NW 4.6 mph - 0.01 in Snow Light Snow
7:50 PM 32.0 °F 26.4 °F 30.2 °F 93% 29.62 in 2.0 mi NW 5.8 mph - 0.01 in Snow Light Snow
7:51 PM 32.0 °F 26.4 °F 30.9 °F 96% 29.64 in 2.0 mi NW 5.8 mph - 0.01 in Snow Light Snow
7:59 PM 32.0 °F 27.5 °F 30.2 °F 93% 29.63 in 1.8 mi NW 4.6 mph - 0.00 in Snow Light Snow
8:06 PM 32.0 °F 25.6 °F 30.2 °F 93% 29.63 in 1.8 mi NW 6.9 mph - 0.01 in Snow Light Snow
8:14 PM 32.0 °F 25.6 °F 30.2 °F 93% 29.63 in 2.5 mi WNW 6.9 mph - 0.01 in Snow Light Snow
8:19 PM 32.0 °F 26.4 °F 30.2 °F 93% 29.63 in 3.0 mi NW 5.8 mph - 0.01 in Snow Light Snow
8:30 PM 32.0 °F 24.8 °F 30.2 °F 93% 29.63 in 2.5 mi NW 8.1 mph - 0.01 in Snow Light Snow
8:41 PM 32.0 °F 24.8 °F 30.2 °F 93% 29.63 in 3.0 mi NW 8.1 mph - 0.01 in Snow Light Snow
8:47 PM 32.0 °F 25.6 °F 30.2 °F 93% 29.63 in 2.5 mi NW 6.9 mph - 0.01 in Snow Light Snow
8:53 PM 32.0 °F 25.6 °F 30.9 °F 96% 29.64 in 2.5 mi NW 6.9 mph - 0.01 in Snow Light Snow
9:11 PM 32.0 °F 26.4 °F 30.2 °F 93% 29.63 in 1.2 mi NW 5.8 mph - 0.01 in Snow Light Snow
9:29 PM 32.0 °F 24.8 °F 30.2 °F 93% 29.62 in 2.0 mi NNW 8.1 mph - 0.02 in Snow Light Snow
9:36 PM 32.0 °F 25.6 °F 30.2 °F 93% 29.62 in 1.8 mi NW 6.9 mph - 0.02 in Snow Light Snow
9:48 PM 32.0 °F 25.6 °F 30.2 °F 93% 29.62 in 2.5 mi NW 6.9 mph - 0.03 in Snow Light Snow
9:53 PM 32.0 °F 25.6 °F 30.9 °F 96% 29.63 in 3.0 mi NNW 6.9 mph - 0.03 in Snow Light Snow
10:07 PM 32.0 °F 25.6 °F 30.2 °F 93% 29.62 in 2.5 mi NW 6.9 mph - 0.00 in Snow Light Snow
10:35 PM 32.0 °F 25.6 °F 30.2 °F 93% 29.61 in 3.0 mi NW 6.9 mph - 0.01 in Snow Light Snow
10:38 PM 32.0 °F 25.6 °F 30.2 °F 93% 29.61 in 2.5 mi NW 6.9 mph - 0.01 in Snow Light Snow
10:53 PM 32.0 °F 25.6 °F 30.9 °F 96% 29.62 in 2.5 mi NW 6.9 mph - 0.01 in Snow Light Snow
11:17 PM 32.0 °F 26.4 °F 30.2 °F 93% 29.60 in 3.0 mi NW 5.8 mph - 0.00 in Snow Light Snow
11:53 PM 32.0 °F 26.4 °F 30.9 °F 96% 29.62 in 4.0 mi NW 5.8 mph - 0.01 in Snow Light Snow